FW3687 Weather Reports


time (UTC)temp
C
wind
direction
speed
KPH
gust
KPH
rain 1hr
cm
rain 24hr
cm
rain mn
cm
humidity
%
barometer
mb
20260507070551 8 15 0.0 0.0 0.00 0.00 0.00 57 1019.6
20260507070051 8 15 0.0 0.0 0.00 0.00 0.00 57 1019.5
20260507065552 8 15 0.0 0.0 0.00 0.00 0.00 56 1019.7
20260507065050 8 15 0.0 0.0 0.00 0.00 0.00 57 1019.7
20260507064551 8 15 0.0 0.0 0.00 0.00 0.00 56 1019.7
20260507063550 9 15 0.0 0.0 0.00 0.00 0.00 55 1019.8
20260507063051 9 15 0.0 0.0 0.00 0.00 0.00 55 1019.8
20260507062551 9 15 0.0 0.0 0.00 0.00 0.00 55 1019.6
20260507062051 9 15 0.0 0.0 0.00 0.00 0.00 54 1019.7
20260507060551 10 15 0.0 0.0 0.00 0.00 0.00 53 1019.5
20260507060051 10 15 0.0 0.0 0.00 0.00 0.00 53 1019.2
20260507055552 10 15 0.0 0.0 0.00 0.00 0.00 52 1019.1
20260507054551 10 15 0.0 0.0 0.00 0.00 0.00 52 1019.1
20260507054051 10 15 0.0 3.2 0.00 0.00 0.00 52 1019.2
20260507053551 10 15 1.6 3.2 0.00 0.00 0.00 52 1019.2
20260507053051 11 15 0.0 1.6 0.00 0.00 0.00 52 1019.1
20260507052551 11 15 0.0 1.6 0.00 0.00 0.00 52 1019.2
20260507052051 11 15 0.0 0.0 0.00 0.00 0.00 51 1019.1
20260507051551 11 15 0.0 0.0 0.00 0.00 0.00 49 1019.0
20260507051051 11 15 0.0 1.6 0.00 0.00 0.00 49 1019.0
20260507050551 11 15 0.0 1.6 0.00 0.00 0.00 48 1019.0
20260507045550 11 15 0.0 1.6 0.00 0.00 0.00 48 1018.9
20260507045050 11 15 0.0 1.6 0.00 0.00 0.00 48 1018.9
20260507044551 11 15 0.0 3.2 0.00 0.00 0.00 49 1019.0
20260507044051 11 15 1.6 3.2 0.00 0.00 0.00 49 1019.1
20260507041552 11 14 0.0 0.0 0.00 0.00 0.00 49 1018.9
20260507041051 12 14 0.0 1.6 0.00 0.00 0.00 48 1019.0
20260507040551 12 14 0.0 1.6 0.00 0.00 0.00 48 1018.9
20260507040051 12 14 0.0 3.2 0.00 0.00 0.00 48 1019.1
20260507035551 12 15 0.0 1.6 0.00 0.00 0.00 48 1019.2
20260507035051 12 15 0.0 3.2 0.00 0.00 0.00 48 1019.1
20260507034551 12 15 1.6 3.2 0.00 0.00 0.00 47 1018.9
20260507033551 12 15 0.0 1.6 0.00 0.00 0.00 46 1018.9
20260507033051 12 15 0.0 1.6 0.00 0.00 0.00 47 1018.9
20260507032551 12 15 0.0 1.6 0.00 0.00 0.00 46 1018.8
20260507032051 12 15 0.0 3.2 0.00 0.00 0.00 46 1018.8
20260507031551 12 13 0.0 3.2 0.00 0.00 0.00 46 1018.8
20260507031051 12 14 0.0 4.8 0.00 0.00 0.00 45 1018.8
20260507030551 13 17 1.6 6.4 0.00 0.00 0.00 45 1018.6
20260507030051 13 38 3.2 4.8 0.00 0.00 0.00 45 1018.6
20260507025551 13 18 0.0 6.4 0.00 0.00 0.00 45 1018.7
20260507025051 13 334 0.0 6.4 0.00 0.00 0.00 45 1018.6
20260507024551 13 360 1.6 3.2 0.00 0.00 0.00 45 1018.4
20260507023551 13 355 1.6 8.0 0.00 0.00 0.00 44 1018.4
20260507023051 13 360 1.6 9.7 0.00 0.00 0.00 44 1018.4
20260507022051 13 5 0.0 4.8 0.00 0.00 0.00 45 1018.2
20260507021551 13 9 0.0 3.2 0.00 0.00 0.00 45 1018.3
20260507021051 13 5 0.0 3.2 0.00 0.00 0.00 45 1018.2
20260507020550 13 5 1.6 1.6 0.00 0.00 0.00 44 1018.1
20260507020052 13 5 0.0 3.2 0.00 0.00 0.00 44 1018.2
20260507015051 14 22 0.0 3.2 0.00 0.00 0.00 43 1018.0
20260507014551 14 20 0.0 1.6 0.00 0.00 0.00 42 1017.9
20260507013551 15 20 0.0 0.0 0.00 0.00 0.00 41 1017.9
20260507013051 15 20 0.0 1.6 0.00 0.00 0.00 40 1017.8
20260507012551 15 20 0.0 1.6 0.00 0.00 0.00 40 1017.7
20260507012050 15 20 0.0 0.0 0.00 0.00 0.00 40 1017.5
20260507011051 15 20 0.0 1.6 0.00 0.00 0.00 38 1017.5
20260507010551 15 20 0.0 1.6 0.00 0.00 0.00 38 1017.5
20260507010052 15 20 0.0 1.6 0.00 0.00 0.00 38 1017.5
20260507005551 16 20 0.0 3.2 0.00 0.00 0.00 37 1017.4
20260507005050 16 15 0.0 3.2 0.00 0.00 0.00 37 1017.4
20260507004051 16 10 1.6 6.4 0.00 0.00 0.00 37 1017.2
20260507003550 16 20 0.0 4.8 0.00 0.00 0.00 36 1017.1
20260507003051 16 355 0.0 6.4 0.00 0.00 0.00 36 1017.2
20260507002551 16 15 0.0 8.0 0.00 0.00 0.00 36 1017.1
20260507002050 16 355 4.8 8.0 0.00 0.00 0.00 35 1017.1
20260507001552 16 332 0.0 8.0 0.00 0.00 0.00 35 1017.0
20260507001051 16 5 0.0 4.8 0.00 0.00 0.00 35 1017.0
20260507000550 16 355 0.0 9.7 0.00 0.00 0.00 35 1017.0
20260507000051 16 355 1.6 9.7 0.00 0.00 0.00 35 1016.9
20260506235552 17 270 0.0 6.4 0.00 0.00 0.00 35 1016.9
20260506235050 17 168 0.0 6.4 0.00 0.00 0.00 35 1016.9
20260506234551 17 40 4.8 8.0 0.00 0.00 0.00 36 1017.0
20260506234051 17 340 6.4 6.4 0.00 0.00 0.00 36 1016.9
20260506233051 17 88 1.6 4.8 0.00 0.00 0.00 36 1016.9
20260506232051 17 25 1.6 6.4 0.00 0.00 0.00 38 1016.8
20260506231551 17 30 0.0 6.4 0.00 0.00 0.00 37 1016.8
20260506231051 17 36 4.8 8.0 0.00 0.00 0.00 36 1016.6
20260506230551 17 34 3.2 9.7 0.00 0.00 0.00 35 1016.7
20260506230051 17 324 6.4 20.9 0.00 0.00 0.00 35 1016.6
20260506225051 17 142 1.6 6.4 0.00 0.00 0.00 37 1016.6
20260506224551 17 150 3.2 8.0 0.00 0.00 0.00 37 1016.5
20260506224050 17 340 0.0 12.9 0.00 0.00 0.00 36 1016.4
20260506223551 17 349 0.0 12.9 0.00 0.00 0.00 36 1016.4
20260506223052 17 49 6.4 8.0 0.00 0.00 0.00 36 1016.3
20260506222551 17 350 0.0 8.0 0.00 0.00 0.00 38 1016.2
20260506222051 17 15 0.0 14.5 0.00 0.00 0.00 36 1016.3
20260506221551 17 5 0.0 14.5 0.00 0.00 0.00 35 1016.3
20260506221051 17 91 4.8 9.7 0.00 0.00 0.00 36 1016.3
20260506220550 17 55 0.0 9.7 0.00 0.00 0.00 35 1016.2
20260506215550 17 338 1.6 19.3 0.00 0.00 0.00 35 1016.2
20260506215052 17 97 0.0 12.9 0.00 0.00 0.00 36 1016.1
20260506214551 17 323 3.2 19.3 0.00 0.00 0.00 36 1016.1
20260506214052 17 360 9.7 17.7 0.00 0.00 0.00 35 1016.2
20260506213551 18 313 1.6 20.9 0.00 0.00 0.00 34 1016.2
20260506212550 17 9 4.8 19.3 0.00 0.00 0.00 35 1016.3
20260506212050 17 119 1.6 19.3 0.00 0.00 0.00 36 1016.2
20260506211552 17 348 6.4 17.7 0.00 0.00 0.00 36 1016.3
20260506211050 17 30 14.5 16.1 0.00 0.00 0.00 38 1016.1
20260506210052 17 32 3.2 17.7 0.00 0.00 0.00 37 1016.2
20260506205550 17 30 8.0 16.1 0.00 0.00 0.00 37 1016.4
20260506205050 17 343 4.8 16.1 0.00 0.00 0.00 38 1016.4
20260506204551 17 182 3.2 16.1 0.00 0.00 0.00 38 1016.5
20260506204050 17 24 4.8 14.5 0.00 0.00 0.00 38 1016.6
20260506203551 17 72 0.0 11.3 0.00 0.00 0.00 39 1016.6
20260506203052 16 302 4.8 16.1 0.00 0.00 0.00 39 1016.9
20260506202551 16 38 4.8 16.1 0.00 0.00 0.00 39 1016.9
20260506202050 16 46 0.0 12.9 0.00 0.00 0.00 40 1016.9
20260506201552 16 192 1.6 17.7 0.00 0.00 0.00 39 1017.0
20260506201051 16 71 3.2 17.7 0.00 0.00 0.00 39 1017.1
20260506200551 17 10 4.8 14.5 0.00 0.00 0.00 40 1017.1
20260506200051 17 46 0.0 14.5 0.00 0.00 0.00 39 1017.1
20260506195051 17 5 1.6 14.5 0.00 0.00 0.00 40 1016.9
20260506194551 17 322 1.6 14.5 0.00 0.00 0.00 39 1017.0
20260506193550 16 300 1.6 16.1 0.00 0.00 0.00 42 1016.9
20260506193052 16 38 3.2 12.9 0.00 0.00 0.00 40 1017.0
20260506192550 17 96 1.6 11.3 0.00 0.00 0.00 40 1017.0
20260506192051 17 346 6.4 11.3 0.00 0.00 0.00 39 1017.1
20260506191551 17 5 0.0 11.3 0.00 0.00 0.00 40 1017.2
20260506191051 17 5 6.4 12.9 0.00 0.00 0.00 39 1017.3
20260506190052 16 350 3.2 9.7 0.00 0.00 0.00 42 1017.6
20260506185551 16 78 1.6 8.0 0.00 0.00 0.00 40 1017.7
20260506184551 16 26 0.0 4.8 0.00 0.00 0.00 39 1017.7
20260506184051 16 88 1.6 6.4 0.00 0.00 0.00 39 1017.6
20260506183051 17 36 0.0 9.7 0.00 0.00 0.00 40 1017.8
20260506182050 17 83 0.0 6.4 0.00 0.00 0.00 40 1017.8
20260506181551 17 18 0.0 9.7 0.00 0.00 0.00 39 1017.8
20260506180551 17 123 1.6 12.9 0.00 0.00 0.00 40 1018.0
20260506180051 16 23 1.6 12.9 0.00 0.00 0.00 39 1017.9
20260506175551 16 33 0.0 8.0 0.00 0.00 0.00 40 1018.0
20260506175051 17 15 3.2 8.0 0.00 0.00 0.00 40 1017.9
20260506174551 17 106 0.0 8.0 0.00 0.00 0.00 41 1018.0
20260506174051 17 151 1.6 8.0 0.00 0.00 0.00 40 1018.3
20260506173551 16 170 0.0 8.0 0.00 0.00 0.00 40 1018.3
20260506173051 16 342 0.0 8.0 0.00 0.00 0.00 42 1018.3
20260506172551 16 134 0.0 8.0 0.00 0.00 0.00 41 1018.5
20260506172051 15 143 0.0 9.7 0.00 0.00 0.00 42 1018.6
20260506171551 15 142 0.0 14.5 0.00 0.00 0.00 43 1018.8
20260506171050 15 164 6.4 14.5 0.00 0.00 0.00 42 1018.9
20260506170550 15 137 0.0 8.0 0.00 0.00 0.00 41 1019.2
20260506165553 15 126 0.0 16.1 0.00 0.00 0.00 42 1019.5
20260506165050 15 145 4.8 16.1 0.00 0.00 0.00 42 1019.4
20260506164550 14 78 3.2 12.9 0.00 0.00 0.00 43 1019.5
20260506164050 14 64 0.0 8.0 0.00 0.00 0.00 44 1019.3
20260506163550 13 68 0.0 14.5 0.00 0.00 0.00 45 1019.1
20260506163051 13 41 3.2 17.7 0.00 0.00 0.00 45 1019.0
20260506162550 13 307 11.3 17.7 0.00 0.00 0.00 46 1018.9
20260506162051 13 292 0.0 17.7 0.00 0.00 0.00 45 1019.1
20260506161050 13 323 4.8 17.7 0.00 0.00 0.00 45 1019.0
20260506160550 13 341 3.2 24.1 0.00 0.00 0.00 45 1018.9
20260506160052 13 97 3.2 24.1 0.00 0.00 0.00 46 1018.8
20260506155550 13 355 1.6 12.9 0.00 0.00 0.00 45 1018.4
20260506155051 13 360 4.8 12.9 0.00 0.00 0.00 46 1018.4
20260506154551 13 127 0.0 12.9 0.00 0.00 0.00 46 1018.3
20260506153551 13 165 1.6 6.4 0.00 0.00 0.00 47 1018.0
20260506153051 13 177 3.2 8.0 0.00 0.00 0.00 48 1017.9
20260506152551 12 150 0.0 6.4 0.00 0.00 0.00 48 1017.6
20260506151551 12 138 1.6 8.0 0.00 0.00 0.00 48 1017.5
20260506151050 12 118 0.0 17.7 0.00 0.00 0.00 48 1017.3
20260506150551 12 146 14.5 17.7 0.00 0.00 0.00 49 1017.4
20260506150051 12 138 1.6 8.0 0.00 0.00 0.00 48 1017.4
20260506145550 12 69 1.6 12.9 0.00 0.00 0.00 49 1017.4
20260506145051 12 321 3.2 12.9 0.00 0.00 0.00 49 1017.5
20260506144550 11 330 6.4 12.9 0.00 0.00 0.00 49 1017.4
20260506144051 11 355 0.0 12.9 0.00 0.00 0.00 50 1017.4
20260506143051 11 102 1.6 8.0 0.00 0.00 0.00 50 1017.4
20260506142550 11 119 6.4 8.0 0.00 0.00 0.00 50 1017.3
20260506142050 11 45 3.2 19.3 0.00 0.00 0.00 51 1017.3
20260506141551 10 89 4.8 14.5 0.00 0.00 0.00 51 1017.4
20260506140550 10 315 3.2 11.3 0.00 0.00 0.00 52 1017.6
20260506140051 10 109 3.2 11.3 0.00 0.00 0.00 52 1017.5
20260506135551 10 9 1.6 9.7 0.00 0.00 0.00 52 1017.4
20260506135051 10 5 3.2 8.0 0.00 0.00 0.00 52 1017.3
20260506134551 10 5 1.6 12.9 0.00 0.00 0.00 53 1017.3
20260506134050 10 36 3.2 17.7 0.00 0.00 0.00 53 1017.6
20260506133550 10 17 8.0 17.7 0.00 0.00 0.00 53 1017.7
20260506133051 10 309 4.8 14.5 0.00 0.00 0.00 54 1017.5
20260506132050 10 47 0.0 11.3 0.00 0.00 0.00 54 1017.6
20260506131551 10 15 3.2 8.0 0.00 0.00 0.00 55 1017.4
20260506131050 9 5 1.6 12.9 0.00 0.00 0.00 55 1017.5
20260506130550 9 57 0.0 12.9 0.00 0.00 0.00 55 1017.3
20260506130050 9 42 1.6 9.7 0.00 0.00 0.00 55 1017.3
20260506125550 9 64 1.6 9.7 0.00 0.00 0.00 56 1017.2
20260506125051 9 40 3.2 12.9 0.00 0.00 0.00 56 1017.3
20260506123051 9 5 1.6 17.7 0.00 0.00 0.00 56 1017.3
20260506122550 9 331 0.0 19.3 0.00 0.00 0.00 56 1017.0
20260506121551 9 5 4.8 22.5 0.00 0.00 0.00 56 1017.0
20260506121050 9 81 0.0 14.5 0.00 0.00 0.00 56 1016.5
20260506120550 9 26 0.0 24.1 0.00 0.00 0.00 56 1016.5
20260506120051 9 49 3.2 24.1 0.00 0.00 0.00 56 1016.5
20260506115551 9 98 1.6 19.3 0.00 0.00 0.00 57 1016.7
20260506115049 9 360 1.6 14.5 0.00 0.00 0.00 57 1016.5
20260506114550 9 344 4.8 11.3 0.00 0.00 0.00 57 1016.6
20260506114049 9 324 3.2 9.7 0.00 0.00 0.00 57 1016.7
20260506113550 9 17 1.6 12.9 0.00 0.00 0.00 56 1016.7
20260506113050 9 89 1.6 12.9 0.00 0.00 0.00 56 1016.5
20260506112551 9 347 0.0 12.9 0.00 0.00 0.00 55 1016.5
20260506112050 9 42 1.6 16.1 0.00 0.00 0.00 55 1016.5
20260506111551 9 80 1.6 16.1 0.00 0.00 0.00 54 1016.5
20260506111050 9 312 14.5 20.9 0.00 0.00 0.00 54 1016.5
20260506110550 9 11 6.4 20.9 0.00 0.00 0.00 54 1016.4
20260506110050 9 342 0.0 17.7 0.00 0.00 0.00 54 1016.3
20260506105050 10 351 3.2 14.5 0.00 0.00 0.00 54 1016.0
20260506104550 10 290 1.6 17.7 0.00 0.00 0.00 54 1016.1
20260506103549 10 5 1.6 16.1 0.00 0.00 0.00 54 1015.8
20260506103050 10 5 3.2 12.9 0.00 0.00 0.00 54 1015.6
20260506102549 10 11 0.0 14.5 0.00 0.00 0.00 54 1015.6
20260506102050 10 108 1.6 14.5 0.00 0.00 0.00 54 1015.7
20260506101050 10 5 0.0 9.7 0.00 0.00 0.00 54 1015.7
20260506100550 10 316 0.0 12.9 0.00 0.00 0.00 54 1015.7
20260506100050 10 313 4.8 9.7 0.00 0.00 0.00 54 1015.5
20260506095551 10 49 0.0 12.9 0.00 0.00 0.00 54 1015.5
20260506095050 10 13 6.4 12.9 0.00 0.00 0.00 54 1015.5
20260506094551 10 20 1.6 11.3 0.00 0.00 0.00 54 1015.5
20260506094050 10 338 0.0 11.3 0.00 0.00 0.00 54 1015.2
20260506093051 10 319 3.2 16.1 0.00 0.00 0.00 54 1014.7
20260506092551 10 310 4.8 16.1 0.00 0.00 0.00 53 1014.7
20260506091551 10 349 1.6 17.7 0.00 0.00 0.00 53 1014.4
20260506090551 10 360 1.6 12.9 0.00 0.00 0.00 54 1013.8
20260506090050 10 355 6.4 9.7 0.00 0.00 0.00 54 1013.8
20260506085550 10 321 6.4 14.5 0.00 0.00 0.00 54 1013.6
20260506085050 10 5 1.6 14.5 0.00 0.00 0.00 54 1013.6
20260506084551 10 30 3.2 16.1 0.00 0.00 0.00 53 1013.6
20260506084050 10 306 0.0 16.1 0.00 0.00 0.00 53 1013.7
20260506083050 10 339 0.0 14.5 0.00 0.00 0.00 53 1013.5
20260506082550 10 348 0.0 14.5 0.00 0.00 0.00 53 1013.2
20260506081550 10 5 0.0 9.7 0.00 0.00 0.00 53 1013.3
20260506081051 10 5 0.0 8.0 0.00 0.00 0.00 53 1013.2
20260506080550 10 5 0.0 8.0 0.00 0.00 0.00 53 1013.1
20260506072550 10 22 1.6 12.9 0.00 0.00 0.00 52 1013.2
20260506072050 10 34 0.0 12.9 0.00 0.00 0.00 52 1013.3
20260506071550 10 346 3.2 9.7 0.00 0.00 0.00 52 1013.6
20260506071050 10 46 4.8 12.9 0.00 0.00 0.00 52 1013.6